Date String (YYYY-MM-DD hh:mm:ss) UTC,Instrument flags,absolute air pressure of the measurement (hPa),sample flow rate (lpm),inlet stack bypass flow (lpm),air temperature of the measurement (°C),ambient temperature measured by the external sensor (°C),aerosol sample conditioner tube jacket temperature (°C),OPC LED temperature (°C),internal box temperature (°C),relative humidity of the measurement (%),span deviation,mass concentration of particles derived from Lorenz-Mie calculation of OPC scattering (μg/m³),mass concentration of particles derived from Lorenz-Mie calculation of OPC scattering (μg/m³),mass concentration of particles derived from Lorenz-Mie calculation of OPC scattering (μg/m³)
DateTimeUTC,F1_M11,P_M11,Q1_M11,Q2_M11,T1_M11,T2_M11,T3_M11,T4_M11,T5_M11,U1_M11,ZSPAN_M11,X2_M11,X0_M11,X1_M11
2024-02-06 01:00:00,SystemResetWarning,0828.1,4.99,000.00,023.8,023.2,000.0,032.3,025.6,15.0,0000.9,0006.61,0010.74,0006.26
2024-02-06 01:01:00,SystemResetWarning,0828.1,5.00,000.00,023.8,023.2,000.0,032.3,025.6,15.0,0001.1,0006.64,0010.59,0006.29
2024-02-06 01:02:00,SystemResetWarning,0828.1,5.00,000.00,023.8,023.2,000.0,032.3,025.6,14.9,0001.3,0006.64,0010.26,0006.31
2024-02-06 01:03:00,SystemResetWarning,0828.1,5.01,000.00,023.8,023.2,000.0,032.3,025.6,14.9,0001.6,0006.68,0010.26,0006.37
2024-02-06 01:04:00,SystemResetWarning,0828.1,5.01,000.00,023.8,023.2,000.0,032.3,025.6,14.9,0001.7,0006.74,0010.11,0006.43
2024-02-06 01:05:00,SystemResetWarning,0828.0,5.01,000.00,023.8,023.2,000.0,032.3,025.6,14.8,0001.4,0006.74,0010.88,0006.43
2024-02-06 01:06:00,SystemResetWarning,0828.1,4.99,000.00,023.8,023.2,000.0,032.3,025.6,14.9,0001.4,0006.71,0010.42,0006.40
2024-02-06 01:07:00,SystemResetWarning,0828.1,5.00,000.00,023.8,023.2,000.0,032.3,025.6,14.8,0001.4,0006.71,0010.67,0006.37
2024-02-06 01:08:00,SystemResetWarning,0828.0,5.00,000.00,023.8,023.2,000.0,032.3,025.6,14.8,0001.3,0006.67,0010.93,0006.32
2024-02-06 01:09:00,SystemResetWarning,0828.1,4.99,000.00,023.8,023.2,000.0,032.3,025.6,14.8,0001.5,0006.61,0011.17,0006.27
2024-02-06 01:10:00,SystemResetWarning,0828.1,5.00,000.00,023.8,023.2,000.0,032.3,025.6,14.8,0001.5,0006.59,0011.15,0006.25
2024-02-06 01:11:00,SystemResetWarning,0828.2,5.00,000.00,023.8,023.2,000.0,032.3,025.6,14.9,0001.7,0006.61,0011.46,0006.27
2024-02-06 01:12:00,SystemResetWarning,0828.2,5.00,000.00,023.8,023.2,000.0,032.3,025.6,15.1,0001.8,0006.61,0011.84,0006.28
2024-02-06 01:13:00,SystemResetWarning,0828.3,5.01,000.00,023.8,023.1,000.0,032.3,025.6,15.0,0001.7,0006.62,0011.75,0006.28
2024-02-06 01:14:00,SystemResetWarning,0828.4,5.00,000.00,023.8,023.1,000.0,032.3,025.6,15.0,0000.6,0006.61,0011.86,0006.26
2024-02-06 01:15:00,SystemResetWarning,0828.4,5.00,000.00,023.8,023.1,000.0,032.3,025.6,15.1,0000.0,0006.58,0011.83,0006.22
2024-02-06 01:16:00,SystemResetWarning,0828.4,5.00,000.00,023.8,023.1,000.0,032.3,025.6,15.2,0000.7,0006.61,0011.67,0006.22
2024-02-06 01:17:00,SystemResetWarning,0828.5,5.00,000.00,023.8,023.1,000.0,032.3,025.6,15.0,0000.7,0006.66,0011.26,0006.26
2024-02-06 01:18:00,SystemResetWarning,0828.6,5.01,000.00,023.8,023.1,000.0,032.3,025.6,14.8,0000.6,0006.67,0011.42,0006.29
2024-02-06 01:19:00,SystemResetWarning,0828.5,5.00,000.00,023.8,023.1,000.0,032.3,025.5,15.1,0000.7,0006.71,0011.02,0006.32
2024-02-06 01:20:00,SystemResetWarning,0828.5,4.99,000.00,023.8,023.1,000.0,032.2,025.5,15.1,0001.4,0006.78,0010.88,0006.37
2024-02-06 01:21:00,SystemResetWarning,0828.4,5.00,000.00,023.8,023.1,000.0,032.2,025.5,15.1,0001.3,0006.86,0010.90,0006.41
2024-02-06 01:22:00,SystemResetWarning,0828.4,4.99,000.00,023.8,023.0,000.0,032.2,025.5,15.1,0001.5,0006.86,0010.78,0006.40
2024-02-06 01:23:00,SystemResetWarning,0828.4,5.00,000.00,023.8,023.0,000.0,032.2,025.5,15.2,0001.2,0006.85,0010.27,0006.40
2024-02-06 01:24:00,SystemResetWarning,0828.4,5.01,000.00,023.8,023.0,000.0,032.2,025.5,15.4,0001.4,0006.83,0010.29,0006.37
2024-02-06 01:25:00,SystemResetWarning,0828.4,5.00,000.00,023.8,023.0,000.0,032.2,025.5,15.4,0002.0,0006.84,0010.34,0006.37
2024-02-06 01:26:00,SystemResetWarning,0828.4,4.99,000.00,023.8,023.0,000.0,032.2,025.5,15.5,0002.1,0006.84,0010.22,0006.35
2024-02-06 01:27:00,SystemResetWarning,0828.4,4.99,000.00,023.7,023.0,000.0,032.2,025.5,15.7,0002.6,0006.80,0010.17,0006.33
2024-02-06 01:28:00,SystemResetWarning,0828.4,5.01,000.00,023.7,023.0,000.0,032.2,025.5,15.9,0003.2,0006.77,0010.26,0006.30
2024-02-06 01:29:00,SystemResetWarning,0828.4,5.01,000.00,023.7,023.0,000.0,032.2,025.5,15.9,0003.5,0006.78,0010.28,0006.29
2024-02-06 01:30:00,SystemResetWarning,0828.4,5.00,000.00,023.7,023.0,000.0,032.2,025.5,15.9,0003.1,0006.74,0010.59,0006.27
2024-02-06 01:31:00,SystemResetWarning,0828.4,4.99,000.00,023.7,023.0,000.0,032.2,025.5,16.1,0002.6,0006.71,0010.80,0006.23
2024-02-06 01:32:00,SystemResetWarning,0828.4,4.99,000.00,023.7,023.0,000.0,032.2,025.5,16.2,0002.7,0006.62,0010.69,0006.18
2024-02-06 01:33:00,SystemResetWarning,0828.4,5.01,000.00,023.7,023.0,000.0,032.2,025.5,16.3,0002.5,0006.61,0010.71,0006.15
2024-02-06 01:34:00,SystemResetWarning,0828.4,5.01,000.00,023.7,023.0,000.0,032.2,025.5,16.5,0002.6,0006.58,0011.00,0006.12
2024-02-06 01:35:00,SystemResetWarning,0828.4,5.00,000.00,023.7,023.0,000.0,032.2,025.5,16.5,0002.0,0006.55,0011.06,0006.08
2024-02-06 01:36:00,SystemResetWarning,0828.4,4.99,000.00,023.7,023.0,000.0,032.2,025.5,16.4,0001.8,0006.49,0011.07,0006.05
2024-02-06 01:37:00,SystemResetWarning,0828.4,5.00,000.00,023.7,023.0,000.0,032.2,025.5,16.4,0002.1,0006.46,0011.73,0006.02
2024-02-06 01:38:00,SystemResetWarning,0828.4,5.00,000.00,023.7,023.0,000.0,032.2,025.5,16.4,0002.2,0006.43,0011.71,0005.99
2024-02-06 01:39:00,SystemResetWarning,0828.5,5.00,000.00,023.7,023.0,000.0,032.1,025.5,16.3,0001.6,0006.41,0011.49,0005.97
2024-02-06 01:40:00,SystemResetWarning,0828.5,4.99,000.00,023.7,022.9,000.0,032.1,025.5,16.4,0000.9,0006.38,0011.81,0005.94
2024-02-06 01:41:00,SystemResetWarning,0828.5,5.01,000.00,023.7,022.9,000.0,032.1,025.5,16.5,0001.3,0006.36,0011.35,0005.93
2024-02-06 01:42:00,SystemResetWarning,0828.5,5.02,000.00,023.6,022.9,000.0,032.1,025.5,16.5,0001.5,0006.35,0011.14,0005.93
2024-02-06 01:43:00,SystemResetWarning,0828.5,5.00,000.00,023.6,022.9,000.0,032.1,025.5,16.4,0001.7,0006.36,0011.23,0005.94
2024-02-06 01:44:00,SystemResetWarning,0828.5,4.99,000.00,023.6,022.9,000.0,032.1,025.5,16.5,0001.8,0006.34,0011.32,0005.93
2024-02-06 01:45:00,SystemResetWarning,0828.5,5.00,000.00,023.6,022.9,000.0,032.1,025.5,16.5,0002.3,0006.33,0010.95,0005.93
2024-02-06 01:46:00,SystemResetWarning,0828.5,5.01,000.00,023.6,022.9,000.0,032.1,025.5,16.6,0002.7,0006.39,0010.92,0005.97
2024-02-06 01:47:00,SystemResetWarning,0828.5,5.01,000.00,023.6,022.9,000.0,032.1,025.5,16.6,0002.7,0006.42,0010.87,0006.00
2024-02-06 01:48:00,SystemResetWarning,0828.5,4.99,000.00,023.6,022.9,000.0,032.1,025.4,16.8,0002.2,0006.45,0010.48,0006.03
2024-02-06 01:49:00,SystemResetWarning,0828.5,4.99,000.00,023.6,022.9,000.0,032.1,025.4,16.9,0002.2,0006.49,0011.78,0006.06
2024-02-06 01:50:00,SystemResetWarning,0828.5,5.01,000.00,023.6,022.9,000.0,032.1,025.4,17.0,0002.4,0006.52,0012.30,0006.07
2024-02-06 01:51:00,SystemResetWarning,0828.5,5.01,000.00,023.6,022.8,000.0,032.0,025.4,16.9,0002.8,0006.55,0011.87,0006.08
2024-02-06 01:52:00,SystemResetWarning,0828.5,5.00,000.00,023.6,022.8,000.0,032.0,025.4,16.9,0002.7,0006.60,0012.51,0006.07
2024-02-06 01:53:00,SystemResetWarning,0828.4,5.00,000.00,023.6,022.8,000.0,032.0,025.4,16.9,0002.7,0006.63,0012.94,0006.10
2024-02-06 01:54:00,SystemResetWarning,0828.4,4.99,000.00,023.6,022.8,000.0,032.0,025.4,17.0,0002.9,0006.74,0012.99,0006.20
2024-02-06 01:55:00,SystemResetWarning,0828.4,5.00,000.00,023.5,022.8,000.0,032.0,025.3,17.0,0003.1,0006.89,0013.10,0006.33
2024-02-06 01:56:00,SystemResetWarning,0828.5,5.00,000.00,023.5,022.8,000.0,032.0,025.3,16.8,0003.0,0006.96,0013.48,0006.37
2024-02-06 01:57:00,SystemResetWarning,0828.5,5.01,000.00,023.5,022.7,000.0,032.0,025.3,16.7,0002.8,0007.00,0013.78,0006.39
2024-02-06 01:58:00,SystemResetWarning,0828.6,5.01,000.00,023.5,022.7,000.0,032.0,025.3,16.4,0003.0,0007.04,0014.49,0006.42
2024-02-06 01:59:00,SystemResetWarning,0828.6,5.00,000.00,023.5,022.7,000.0,032.0,025.3,16.4,0003.2,0007.07,0014.86,0006.43
